GW1821 Weather Reports


Display with metric or nautical units.
time (UTC)temp
F
wind
direction
speed
MPH
gust
MPH
rain 1hr
in
rain 24hr
in
rain mn
in
humidity
%
barometer
mb
20260903044104 72 5 0.0 1.0 0.00 0.00 0.00 84 1009.1
20260903043604 72 5 0.0 1.0 0.00 0.00 0.00 84 1009.0
20260903043105 72 5 0.0 1.0 0.00 0.00 0.00 84 1009.0
20260903042551 72 5 0.0 1.0 0.00 0.00 0.00 84 1009.0
20260903042045 72 5 0.0 1.0 0.00 0.00 0.00 83 1009.1
20260903041543 73 5 0.0 1.0 0.00 0.00 0.00 83 1009.1
20260903041303 73 5 0.0 1.0 0.00 0.00 0.00 83 1009.1
20260903040524 73 5 0.0 1.0 0.00 0.00 0.00 83 1009.0
20260903040024 73 5 0.0 0.0 0.00 0.00 0.00 83 1009.0
20260903035512 73 5 0.0 0.0 0.00 0.00 0.00 83 1009.0
20260903035012 73 5 0.0 0.0 0.00 0.00 0.00 83 1009.0
20260903034512 73 5 0.0 0.0 0.00 0.00 0.00 82 1009.1
20260903034015 73 5 0.0 0.0 0.00 0.00 0.00 82 1009.2
20260903033510 73 5 0.0 0.0 0.00 0.00 0.00 82 1009.1
20260903033002 73 5 0.0 0.0 0.00 0.00 0.00 82 1009.1
20260903032456 74 5 0.0 1.0 0.00 0.00 0.00 82 1009.2
20260903032153 74 5 0.0 1.0 0.00 0.00 0.00 82 1009.2
20260903031424 74 5 0.0 1.0 0.00 0.00 0.00 82 1009.2
20260903030921 74 5 0.0 1.0 0.00 0.00 0.00 81 1009.2
20260903030412 74 5 0.0 0.0 0.00 0.00 0.00 80 1009.2
20260903025852 74 5 0.0 0.0 0.00 0.00 0.00 80 1009.2
20260903025339 74 5 0.0 0.0 0.00 0.00 0.00 80 1009.2
20260903024833 74 5 0.0 0.0 0.00 0.00 0.00 80 1009.3
20260903024315 75 5 0.0 1.0 0.00 0.00 0.00 79 1009.3
20260903023814 75 5 0.0 1.0 0.00 0.00 0.00 79 1009.3
20260903023545 75 5 0.0 1.0 0.00 0.00 0.00 78 1009.3
20260903022809 75 5 0.0 1.0 0.00 0.00 0.00 78 1009.3
20260903022309 75 5 0.0 1.0 0.00 0.00 0.00 79 1009.1
20260903021748 76 9 0.0 1.0 0.00 0.00 0.00 78 1009.0
20260903021251 76 5 0.0 1.0 0.00 0.00 0.00 78 1009.0
20260903021008 76 355 0.0 0.0 0.00 0.00 0.00 78 1009.1
20260903020221 76 355 0.0 0.0 0.00 0.00 0.00 76 1009.1
20260903015936 77 355 0.0 1.0 0.00 0.00 0.00 77 1009.0
20260903015152 77 355 0.0 1.0 0.00 0.00 0.00 76 1009.0
20260903015136 77 355 0.0 0.0 0.00 0.00 0.00 76 1008.9
20260903014112 78 355 0.0 0.0 0.00 0.00 0.00 75 1008.9
20260903013613 78 355 0.0 1.0 0.00 0.00 0.00 75 1008.8
20260903013110 78 355 0.0 1.0 0.00 0.00 0.00 75 1008.7
20260903012607 78 355 0.0 1.0 0.00 0.00 0.00 73 1008.7
20260903012306 79 355 0.0 1.0 0.00 0.00 0.00 73 1008.7
20260903011541 79 355 0.0 1.0 0.00 0.00 0.00 72 1008.7
20260903011249 79 355 0.0 1.0 0.00 0.00 0.00 71 1008.6
20260903010515 79 355 0.0 2.0 0.00 0.00 0.00 71 1008.5
20260903010013 80 350 0.0 2.0 0.00 0.00 0.00 71 1008.5
20260903005743 80 350 0.0 2.0 0.00 0.00 0.00 70 1008.5
20260903005014 81 19 0.0 2.0 0.00 0.00 0.00 70 1008.5
20260903004515 81 37 0.0 2.0 0.00 0.00 0.00 69 1008.5
20260903004015 81 37 0.0 2.0 0.00 0.00 0.00 70 1008.5
20260903003512 82 37 0.0 1.0 0.00 0.00 0.00 69 1008.6
20260903003011 82 38 0.0 3.0 0.00 0.00 0.00 69 1008.6
20260903002513 82 38 0.0 3.0 0.00 0.00 0.00 67 1008.6
20260903002006 82 36 0.0 1.0 0.00 0.00 0.00 67 1008.5
20260903001445 83 36 0.0 5.0 0.00 0.00 0.00 67 1008.5
20260903000938 83 36 0.0 5.0 0.00 0.00 0.00 67 1008.5
20260903000436 83 38 1.0 4.0 0.00 0.00 0.00 67 1008.5
20260902235934 83 38 1.0 4.0 0.00 0.00 0.00 65 1008.5
20260902235435 83 15 1.0 3.0 0.00 0.00 0.00 66 1008.5
20260902235157 84 11 1.0 3.0 0.00 0.00 0.00 64 1008.5
20260902234925 84 351 1.0 9.0 0.00 0.00 0.00 64 1008.5
20260902233937 84 87 1.0 9.0 0.00 0.00 0.00 63 1008.5
20260902233430 84 344 1.0 4.0 0.00 0.00 0.00 63 1008.5
20260902232931 85 23 1.0 5.0 0.00 0.00 0.00 63 1008.5
20260902232427 85 281 1.0 5.0 0.00 0.00 0.00 62 1008.5
20260902231927 85 44 1.0 5.0 0.00 0.00 0.00 61 1008.6
20260902231419 85 5 1.0 4.0 0.00 0.00 0.00 61 1008.6
20260902230918 85 319 1.0 2.0 0.00 0.00 0.00 60 1008.6
20260902230640 86 26 1.0 8.0 0.00 0.00 0.00 59 1008.7
20260902230144 86 49 1.0 8.0 0.00 0.00 0.00 57 1008.7
20260902225416 86 5 1.0 3.0 0.00 0.00 0.00 58 1008.7
20260902224901 87 355 1.0 3.0 0.00 0.00 0.00 56 1008.6
20260902224402 87 58 1.0 3.0 0.00 0.00 0.00 56 1008.6
20260902223900 87 76 1.0 3.0 0.00 0.00 0.00 56 1008.6
20260902223357 87 90 1.0 8.0 0.00 0.00 0.00 57 1008.6
20260902222849 88 75 2.0 8.0 0.00 0.00 0.00 55 1008.7
20260902222614 89 15 2.0 6.0 0.00 0.00 0.00 53 1008.6
20260902221848 89 117 1.0 5.0 0.00 0.00 0.00 51 1008.7
20260902221340 90 5 1.0 5.0 0.00 0.00 0.00 52 1008.7
20260902220838 90 149 1.0 6.0 0.00 0.00 0.00 52 1008.7
20260902220337 90 338 2.0 6.0 0.00 0.00 0.00 54 1008.7
20260902215837 90 0 1.0 5.0 0.00 0.00 0.00 53 1008.8
20260902215333 90 336 1.0 4.0 0.00 0.00 0.00 53 1008.8
20260902214834 90 22 1.0 4.0 0.00 0.00 0.00 54 1008.9
20260902214325 90 5 1.0 5.0 0.00 0.00 0.00 55 1008.9
20260902213825 90 5 1.0 5.0 0.00 0.00 0.00 54 1008.8
20260902213544 90 306 1.0 4.0 0.00 0.00 0.00 53 1008.8
20260902212824 90 5 2.0 5.0 0.00 0.00 0.00 55 1008.8
20260902212320 90 24 2.0 5.0 0.00 0.00 0.00 55 1008.8
20260902211811 90 0 1.0 4.0 0.00 0.00 0.00 53 1008.9
20260902211535 90 24 1.0 4.0 0.00 0.00 0.00 54 1008.9
20260902210801 90 355 2.0 6.0 0.00 0.00 0.00 55 1008.9
20260902210301 90 22 2.0 6.0 0.00 0.00 0.00 53 1008.8
20260902205800 90 53 2.0 6.0 0.00 0.00 0.00 55 1008.9
20260902205300 90 123 2.0 10.0 0.00 0.00 0.00 55 1008.9
20260902204758 90 28 2.0 10.0 0.00 0.00 0.00 55 1009.0
20260902204524 90 0 2.0 10.0 0.00 0.00 0.00 56 1009.0
20260902203753 90 35 2.0 10.0 0.00 0.00 0.00 57 1009.1
20260902203245 89 355 2.0 7.0 0.00 0.00 0.00 59 1009.1
20260902202744 89 145 2.0 7.0 0.00 0.00 0.00 57 1009.2
20260902202503 89 355 1.0 4.0 0.00 0.00 0.00 56 1009.1
20260902201731 89 193 2.0 5.0 0.00 0.00 0.00 56 1009.1
20260902201231 89 5 1.0 5.0 0.00 0.00 0.00 58 1009.1
20260902200956 89 36 2.0 5.0 0.00 0.00 0.00 59 1009.1
20260902200226 89 228 2.0 5.0 0.00 0.00 0.00 57 1009.2
20260902195722 88 36 2.0 4.0 0.00 0.00 0.00 58 1009.3
20260902195218 88 62 2.0 5.0 0.00 0.00 0.00 58 1009.4
20260902194946 88 34 1.0 5.0 0.00 0.00 0.00 59 1009.4
20260902194220 87 276 1.0 2.0 0.00 0.00 0.00 57 1009.4
20260902193722 87 337 1.0 3.0 0.00 0.00 0.00 59 1009.5
20260902193214 87 119 2.0 4.0 0.00 0.00 0.00 57 1009.5
20260902192925 87 311 2.0 5.0 0.00 0.00 0.00 58 1009.5
20260902192152 87 37 2.0 5.0 0.00 0.00 0.00 58 1009.6
20260902191653 87 344 1.0 3.0 0.00 0.00 0.00 57 1009.7
20260902191410 87 333 1.0 3.0 0.00 0.00 0.00 58 1009.8
20260902190646 86 30 1.0 4.0 0.00 0.00 0.00 60 1009.8
20260902190142 87 45 2.0 5.0 0.00 0.00 0.00 57 1009.7
20260902185639 86 35 1.0 5.0 0.00 0.00 0.00 60 1009.8
20260902185136 86 114 2.0 5.0 0.00 0.00 0.00 56 1009.8
20260902184637 86 5 1.0 5.0 0.00 0.00 0.00 59 1009.9
20260902184115 85 317 1.0 4.0 0.00 0.00 0.00 61 1010.0
20260902183613 85 95 2.0 5.0 0.00 0.00 0.00 60 1010.0
20260902183114 84 37 1.0 5.0 0.00 0.00 0.00 61 1010.1
20260902182837 84 180 1.0 5.0 0.00 0.00 0.00 62 1010.2
20260902182111 84 53 2.0 5.0 0.00 0.00 0.00 63 1010.3
20260902181613 84 171 2.0 6.0 0.00 0.00 0.00 62 1010.3
20260902181108 84 178 2.0 10.0 0.00 0.00 0.00 62 1010.4
20260902180830 84 355 2.0 10.0 0.00 0.00 0.00 62 1010.3
20260902180107 84 167 2.0 9.0 0.00 0.00 0.00 65 1010.3
20260902175606 83 203 2.0 9.0 0.00 0.00 0.00 62 1010.3
20260902175051 83 176 1.0 6.0 0.00 0.00 0.00 64 1010.3
20260902174814 83 153 1.0 4.0 0.00 0.00 0.00 62 1010.4
20260902174050 82 13 1.0 4.0 0.00 0.00 0.00 65 1010.4
20260902173812 82 55 1.0 5.0 0.00 0.00 0.00 63 1010.6
20260902173040 82 173 2.0 8.0 0.00 0.00 0.00 66 1010.7
20260902172540 81 163 3.0 8.0 0.00 0.00 0.00 65 1010.8
20260902172041 81 163 2.0 7.0 0.00 0.00 0.00 65 1010.8
20260902171537 80 184 1.0 5.0 0.00 0.00 0.00 68 1010.6
20260902171033 80 181 1.0 5.0 0.00 0.00 0.00 67 1010.6
20260902170530 80 138 1.0 5.0 0.00 0.00 0.00 68 1010.8
20260902170255 79 288 1.0 4.0 0.00 0.00 0.00 70 1010.8
20260902165532 79 22 1.0 4.0 0.00 0.00 0.00 69 1010.7
20260902165020 78 182 1.0 4.0 0.00 0.00 0.00 69 1010.7
20260902164522 78 42 1.0 4.0 0.00 0.00 0.00 71 1010.7
20260902164013 78 65 1.0 4.0 0.00 0.00 0.00 73 1010.7
20260902163514 77 59 1.0 4.0 0.00 0.00 0.00 73 1010.7
20260902163010 77 30 1.0 3.0 0.00 0.00 0.00 74 1010.8
20260902162737 77 294 2.0 4.0 0.00 0.00 0.00 74 1010.8
20260902162001 76 218 2.0 4.0 0.00 0.00 0.00 73 1011.0
20260902161503 76 338 2.0 3.0 0.00 0.00 0.00 74 1011.1
20260902160957 76 14 1.0 4.0 0.00 0.00 0.00 75 1010.9
20260902160456 76 336 1.0 4.0 0.00 0.00 0.00 78 1010.6
20260902155956 75 5 1.0 3.0 0.00 0.00 0.00 78 1010.6
20260902155456 75 15 1.0 3.0 0.00 0.00 0.00 78 1010.5
20260902154951 75 332 1.0 3.0 0.00 0.00 0.00 79 1010.5
20260902154448 74 329 1.0 4.0 0.00 0.00 0.00 79 1010.5
20260902153939 74 330 1.0 4.0 0.00 0.00 0.00 78 1010.5
20260902153438 74 325 1.0 4.0 0.00 0.00 0.00 79 1010.5
20260902153155 74 177 1.0 2.0 0.00 0.00 0.00 79 1010.5
20260902152658 74 177 1.0 3.0 0.00 0.00 0.00 79 1010.7
20260902151931 74 175 1.0 5.0 0.00 0.00 0.00 80 1010.7
20260902151428 73 279 1.0 5.0 0.00 0.00 0.00 82 1010.6
20260902150924 73 205 1.0 5.0 0.00 0.00 0.00 82 1010.7
20260902150408 73 204 1.0 5.0 0.00 0.00 0.00 82 1010.8
20260902145905 72 166 1.0 3.0 0.00 0.00 0.00 82 1010.9
20260902145621 72 40 1.0 3.0 0.00 0.00 0.00 81 1010.6
20260902144858 72 32 1.0 3.0 0.00 0.00 0.00 83 1010.3
20260902144357 71 29 1.0 2.0 0.00 0.00 0.00 83 1010.3
20260902144113 71 29 1.0 3.0 0.00 0.00 0.00 83 1010.4
20260902143340 71 29 1.0 3.0 0.00 0.00 0.00 84 1010.5
20260902142826 71 24 1.0 3.0 0.00 0.00 0.00 84 1010.7
20260902142815 70 50 1.0 3.0 0.00 0.00 0.00 84 1010.7
20260902141824 70 51 0.0 3.0 0.00 0.00 0.00 85 1010.8
20260902141322 70 131 1.0 3.0 0.00 0.00 0.00 85 1010.8
20260902141037 69 131 1.0 3.0 0.00 0.00 0.00 85 1010.9
20260902140543 69 36 1.0 4.0 0.00 0.00 0.00 85 1010.8
20260902135814 69 162 1.0 4.0 0.00 0.00 0.00 86 1010.9
20260902135531 69 163 1.0 5.0 0.00 0.00 0.00 86 1010.8
20260902135032 69 162 1.0 5.0 0.00 0.00 0.00 85 1010.9
20260902134308 69 161 2.0 6.0 0.00 0.00 0.00 86 1010.7
20260902133952 69 157 2.0 8.0 0.00 0.00 0.00 86 1010.7
20260902133224 69 181 1.0 8.0 0.00 0.00 0.00 86 1010.8
20260902132713 68 160 1.0 5.0 0.00 0.00 0.00 87 1010.9
20260902132212 68 160 1.0 5.0 0.00 0.00 0.00 87 1010.9
20260902131711 68 134 0.0 3.0 0.00 0.00 0.00 88 1010.8
20260902131150 68 76 0.0 1.0 0.00 0.00 0.00 87 1011.0
20260902131137 68 76 0.0 3.0 0.00 0.00 0.00 88 1010.9
20260902130146 67 76 0.0 3.0 0.00 0.00 0.00 88 1010.8
20260902125900 67 129 0.0 1.0 0.00 0.00 0.00 88 1011.0
20260902125138 67 129 0.0 1.0 0.00 0.00 0.00 89 1010.9
20260902124631 67 129 0.0 1.0 0.00 0.00 0.00 89 1010.9
20260902124132 67 129 0.0 0.0 0.00 0.00 0.00 88 1011.1
20260902123631 67 129 0.0 1.0 0.00 0.00 0.00 88 1011.1
20260902123131 67 129 0.0 1.0 0.00 0.00 0.00 88 1011.1
20260902122608 67 129 0.0 1.0 0.00 0.00 0.00 88 1010.8
20260902122102 67 129 0.0 1.0 0.00 0.00 0.00 88 1010.8
20260902121545 67 129 0.0 1.0 0.00 0.00 0.00 88 1010.9
20260902121303 67 129 0.0 1.0 0.00 0.00 0.00 88 1010.9
20260902120755 67 129 0.0 2.0 0.00 0.00 0.00 88 1010.9
20260902120029 67 129 0.0 2.0 0.00 0.00 0.00 88 1011.0
20260902120003 67 129 0.0 0.0 0.00 0.00 0.00 88 1011.3
20260902114959 67 129 0.0 2.0 0.00 0.00 0.00 88 1011.3
20260902114458 67 129 1.0 2.0 0.00 0.00 0.00 88 1011.5
20260902113946 67 129 1.0 6.0 0.00 0.00 0.00 88 1011.3
20260902113441 67 129 0.0 6.0 0.00 0.00 0.00 87 1011.2
20260902112918 67 209 0.0 1.0 0.00 0.00 0.00 87 1011.1
20260902112413 67 209 0.0 1.0 0.00 0.00 0.00 87 1011.1
20260902111910 67 209 0.0 2.0 0.00 0.00 0.00 87 1011.0
20260902111403 67 209 0.0 2.0 0.00 0.00 0.00 87 1011.0
20260902110848 67 209 0.0 0.0 0.00 0.00 0.00 87 1011.1
20260902110346 68 209 0.0 0.0 0.00 0.00 0.00 87 1010.9
20260902105832 67 209 0.0 1.0 0.00 0.00 0.00 87 1010.8
20260902105320 68 209 0.0 2.0 0.00 0.00 0.00 87 1011.1
20260902104818 68 209 0.0 2.0 0.00 0.00 0.00 87 1011.0
20260902104311 68 209 0.0 2.0 0.00 0.00 0.00 87 1011.1
20260902103808 68 219 1.0 6.0 0.00 0.00 0.00 87 1011.2
20260902103305 67 192 1.0 6.0 0.00 0.00 0.00 87 1011.2
20260902102805 67 182 1.0 3.0 0.00 0.00 0.00 87 1011.0
20260902102300 68 183 1.0 2.0 0.00 0.00 0.00 87 1011.2
20260902101758 67 184 1.0 4.0 0.00 0.00 0.00 87 1011.0
20260902101512 67 184 1.0 4.0 0.00 0.00 0.00 88 1010.9
20260902100744 67 185 0.0 1.0 0.00 0.00 0.00 87 1010.4
20260902100239 67 185 0.0 1.0 0.00 0.00 0.00 88 1010.2
20260902095736 67 185 0.0 0.0 0.00 0.00 0.00 88 1010.2
20260902095440 67 185 0.0 0.0 0.00 0.00 0.00 88 1010.2
20260902094712 67 185 0.0 0.0 0.00 0.00 0.00 88 1010.1
20260902094201 67 185 0.0 0.0 0.00 0.00 0.00 88 1009.9
20260902093652 67 185 0.0 0.0 0.00 0.00 0.00 88 1009.6
20260902093145 67 185 0.0 0.0 0.00 0.00 0.00 88 1009.5
20260902092625 67 185 0.0 0.0 0.00 0.00 0.00 88 1009.5
20260902092113 68 185 0.0 0.0 0.00 0.00 0.00 88 1009.7
20260902091814 68 185 0.0 0.0 0.00 0.00 0.00 88 1009.7
20260902091049 68 185 0.0 0.0 0.00 0.00 0.00 88 1009.8
20260902090527 68 185 0.0 0.0 0.00 0.00 0.00 89 1009.8
20260902090230 68 185 0.0 0.0 0.00 0.00 0.00 89 1009.8
20260902085512 68 185 0.0 0.0 0.00 0.00 0.00 89 1009.9
20260902084959 68 185 0.0 0.0 0.00 0.00 0.00 88 1010.3
20260902084454 68 185 0.0 0.0 0.00 0.00 0.00 88 1010.4
20260902083917 68 185 0.0 0.0 0.00 0.00 0.00 88 1010.3
20260902083405 68 185 0.0 0.0 0.00 0.00 0.00 88 1010.3
20260902082851 68 185 0.0 0.0 0.00 0.00 0.00 88 1010.3
20260902082613 68 185 0.0 0.0 0.00 0.00 0.00 88 1010.5
20260902081835 68 185 0.0 2.0 0.00 0.00 0.00 88 1010.6
20260902081328 68 185 0.0 2.0 0.00 0.00 0.00 88 1010.8
20260902081255 68 185 0.0 2.0 0.00 0.00 0.00 88 1010.7
20260902080525 68 185 0.0 2.0 0.00 0.00 0.00 88 1010.6
20260902075741 68 185 0.0 1.0 0.00 0.00 0.00 88 1010.4
20260902075443 68 185 0.0 1.0 0.00 0.00 0.00 87 1010.6
20260902074720 68 185 1.0 3.0 0.00 0.00 0.00 87 1010.7
20260902074219 68 185 1.0 3.0 0.00 0.00 0.00 87 1010.7
20260902073719 68 196 0.0 3.0 0.00 0.00 0.00 87 1010.8
20260902073218 68 198 0.0 0.0 0.00 0.00 0.00 87 1010.6
20260902072721 68 198 0.0 0.0 0.00 0.00 0.00 86 1010.7
20260902072219 69 198 0.0 0.0 0.00 0.00 0.00 86 1010.8
20260902071717 69 198 0.0 1.0 0.00 0.00 0.00 86 1010.8
20260902071202 69 198 0.0 1.0 0.00 0.00 0.00 85 1011.0
20260902070650 69 198 0.0 1.0 0.00 0.00 0.00 84 1011.1
20260902070144 69 198 0.0 1.0 0.00 0.00 0.00 84 1011.2
20260902065900 69 198 0.0 1.0 0.00 0.00 0.00 83 1011.3
20260902065134 69 198 0.0 2.0 0.00 0.00 0.00 82 1011.5
20260902064629 69 198 1.0 3.0 0.00 0.00 0.00 82 1011.6
20260902064106 69 208 1.0 3.0 0.00 0.00 0.00 82 1011.7
20260902063600 69 316 0.0 2.0 0.00 0.00 0.00 82 1011.6
20260902063103 69 317 0.0 1.0 0.00 0.00 0.00 82 1011.3
20260902062601 69 317 0.0 1.0 0.00 0.00 0.00 82 1011.3
20260902062017 69 317 0.0 1.0 0.00 0.00 0.00 82 1011.2
20260902061515 69 317 0.0 1.0 0.00 0.00 0.00 82 1010.9
20260902061013 69 317 0.0 1.0 0.00 0.00 0.00 82 1010.7
20260902060512 69 317 0.0 2.0 0.00 0.00 0.00 82 1010.2
20260902060012 70 317 1.0 2.0 0.00 0.00 0.00 82 1010.1
20260902055734 70 334 0.0 2.0 0.00 0.00 0.00 81 1010.3
20260902055236 70 349 0.0 1.0 0.00 0.00 0.00 81 1010.6
20260902054515 70 5 0.0 1.0 0.00 0.00 0.00 80 1010.8
20260902054010 70 344 0.0 1.0 0.00 0.00 0.00 80 1010.9
20260902053507 70 344 0.0 1.0 0.00 0.00 0.00 79 1011.0
20260902053009 70 327 0.0 0.0 0.00 0.00 0.00 80 1011.1
20260902052456 70 327 0.0 0.0 0.00 0.00 0.00 79 1011.2
20260902051948 70 327 0.0 1.0 0.00 0.00 0.00 80 1011.3
20260902051657 70 327 0.0 2.0 0.00 0.00 0.00 79 1011.3
20260902050934 70 327 0.0 2.0 0.00 0.00 0.00 79 1011.3
20260902050431 70 327 1.0 2.0 0.00 0.00 0.00 78 1011.2
20260902050144 70 327 1.0 4.0 0.00 0.00 0.00 78 1011.2
20260902045411 70 327 1.0 4.0 0.00 0.00 0.00 78 1010.9
20260902044911 70 325 0.0 2.0 0.00 0.00 0.00 79 1010.7
20260902044411 70 325 0.0 1.0 0.00 0.00 0.00 78 1010.8